Location: Newark
(48.0679°N, 114.0387°W)
Time: 16:15:03
(UTC+00:00)

Envisat - Visible Passes

Search period start: 23 September 2019 00:00
Search period end: 03 October 2019 00:00
Orbit: 764 x 766 km, 98.1° (Epoch: 23 September)

Date Brightness Start Highest point End Pass type
(mag) Time Alt. Az. Time Alt. Az. Time Alt. Az.
23 Sep 5.1 02:32:37 10° SSW 02:37:06 31° W 02:41:36 10° NNW visible
24 Sep 3.6 01:55:07 10° S 02:00:08 63° WSW 02:05:13 10° NNW visible
25 Sep 5.8 02:59:19 10° SW 03:02:52 19° W 03:06:26 10° NW visible
26 Sep 4.6 02:21:03 10° SSW 02:25:46 38° W 02:30:31 10° NNW visible
27 Sep 6.3 03:27:23 10° W 03:28:44 11° W 03:30:06 10° WNW visible
28 Sep 5.5 02:47:28 10° SW 02:51:29 23° W 02:55:31 10° NW visible
29 Sep 4.2 02:09:34 10° S 02:14:27 47° W 02:19:22 10° NNW visible
30 Sep 6.0 03:14:42 10° WSW 03:17:19 14° W 03:19:55 10° NW visible
01 Oct 5.2 02:35:46 10° SSW 02:40:07 28° W 02:44:31 10° NW visible
01 Oct 6.8 13:03:58 10° ENE 13:05:13 11° E 13:06:27 10° E visible
02 Oct 3.7 01:58:08 10° S 02:03:08 58° W 02:08:11 10° NNW visible
